Preview of NWS' New Version of Forecast
This preview is not operational and should not be used for support decisions.
Latest weather observations around

Oakland, Metro Oakland International Airport (KOAK)

Using English Units (Switch to International System of Units)
Date/ Time (PDT) Wind (mph) Vis. (mi) Weather Sky Cond. Temp (°F) Rel. Humidity Wind Chill (°F) Heat Index (°F) Pressure Precip. (in)
Air Dwpt 6 hour Altimeter (inHg) Sea level (inHg) 1 hr 3 hr 6 hr
Max Min
Aug 25 21:53 NW 7 10 Mostly Clear FEW008 63 56     78%     29.97 29.96      
Aug 25 20:53 WNW 10 10 Mostly Clear FEW008 64 57     78%     29.96 29.96      
Aug 25 19:53 WNW 11 10 Mostly Clear FEW008 65 57     76%     29.95 29.94      
Aug 25 18:53 WNW 11 10 Mostly Clear FEW008 70 57     63%     29.95 29.94      
Aug 25 17:53 NW 9 10 Mostly Clear FEW008 73 59     61%   73 29.95 29.95      
Aug 25 16:53 WNW 10 10 Mostly Clear FEW008 75 58     55%   75 29.96 29.96      
Aug 25 15:53 NW 11 10 Mostly Clear FEW008 76 59     56%   76 29.97 29.97      
Aug 25 14:53 WNW 13 10 Mostly Clear FEW006 76 59     56%   76 29.98 29.98      
Aug 25 13:53 WNW 14 10 Mostly Clear FEW006 73 59     61%   73 29.99 29.98      
Aug 25 12:53 WNW 14 10 Mostly Clear FEW006 74 59     60%   74 29.99 29.99      
Aug 25 11:53 W 6 10 Mostly Clear FEW005 70 60     71%     30.01 30      
Aug 25 10:53 WSW 5 10 Partly Cloudy SCT005 66 59     78%     30.02 30.02      
Aug 25 09:53 WNW 3 4 Haze OVC005 64 59     84%     30.02 30.02      
Aug 25 08:53 W 6 3 Fog/Mist OVC006 63 59     87%     30.03 30.02      
Aug 25 07:53 Calm 3 Fog/Mist OVC006 63 59     87%     30.02 30.01      
Aug 25 06:53 NNW 5 3 Fog/Mist OVC005 62 59     90%     30 30      
Aug 25 05:53 NW 5 7 Mostly Cloudy BKN006 62 59     90%     29.99 29.98      
Aug 25 05:16 NNW 5 7 Mostly Cloudy BKN006 61 58     90%     29.98        
Aug 25 04:53 Calm 7 Mostly Clear FEW006 60 57     90%     29.98 29.98      
Aug 25 03:53 NNE 3 9 Mostly Clear FEW006 60 56     86%     29.98 29.97      
Aug 25 03:05 Calm 9 Mostly Clear FEW006 61 57     87%     29.99        
Aug 25 03:01 Calm 9 Clear CLR 61 57     87%     29.99        
Aug 25 02:53 Calm 9 Clear CLR 61 57     87%     29.99 29.98      
Aug 25 01:53 Calm 9 Partly Cloudy SCT006 62 58     86%     29.99 29.98      
Aug 25 00:53 NNW 5 10 Mostly Cloudy BKN006 62 58     86%     29.99 29.98      
Aug 24 23:53 NNW 5 9 Mostly Cloudy BKN006 62 58     86%     29.98 29.98      
Aug 24 22:53 NW 8 10 Mostly Cloudy SCT006 BKN008 62 58     86%     29.98 29.98      
Aug 24 21:53 NW 6 10 Mostly Clear FEW008 63 58     84%     29.97 29.96      
Aug 24 20:53 WNW 9 10 Mostly Clear FEW008 64 58     81%     29.95 29.95      
Aug 24 19:53 NW 9 10 Mostly Clear FEW008 65 58     78%     29.94 29.94      
Aug 24 18:53 NW 11 10 Mostly Clear FEW010 69 59     70%     29.94 29.93      
Aug 24 17:53 NW 10 10 Mostly Clear FEW010 70 59     68%     29.94 29.94      
Aug 24 16:53 NW 14 10 Mostly Clear FEW012 72 59     64%   72 29.94 29.93      
Aug 24 15:53 WNW 15 10 Mostly Clear FEW012 73 59     61%   73 29.94 29.94      
Aug 24 14:53 WNW 13 10 Mostly Clear FEW012 73 59     61%   73 29.95 29.95      
Aug 24 13:53 NW 14 10 Mostly Clear FEW012 72 59     64%   72 29.96 29.96      
Aug 24 12:53 WNW 14 10 Mostly Clear FEW012 70 58     66%     29.96 29.96      
Aug 24 11:53 WNW 11 10 Mostly Clear FEW012 70 59     68%     29.97 29.96      
Aug 24 11:06 NW 9 10 Partly Cloudy SCT012 69 59     70%     29.97        
Aug 24 10:53 NW 7 10 Mostly Cloudy BKN011 69 59     70%     29.97 29.96      
Aug 24 09:53 N 6 8 Cloudy OVC010 66 58     75%     29.96 29.95      
Aug 24 08:53 N 7 8 Cloudy OVC010 65 58     78%     29.95 29.94      
Aug 24 07:53 NNW 3 8 Cloudy OVC009 63 58     84%     29.94 29.93      
Aug 24 06:53 NNW 6 9 Cloudy OVC009 63 58     84%     29.92 29.91      
Aug 24 06:32 NNW 7 10 Cloudy OVC009 63 58     84%     29.92        
Aug 24 05:53 NNW 8 10 Cloudy OVC012 63 58     84%     29.9 29.9      
Aug 24 04:53 N 6 10 Mostly Cloudy BKN012 63 58     84%     29.89 29.89      
Aug 24 03:53 N 7 10 Mostly Cloudy BKN012 63 58     84%     29.89 29.88      
Aug 24 02:53 N 5 10 Mostly Cloudy BKN012 62 57     84%     29.88 29.87      
Aug 24 02:42 NNW 5 10 Mostly Cloudy BKN012 62 57     84%     29.88        
Aug 24 01:53 N 3 10 Mostly Clear FEW014 62 57     84%     29.88 29.87      
Aug 24 00:53 N 5 10 Mostly Clear FEW014 62 57     84%     29.88 29.87      
Aug 23 23:53 N 6 10 Partly Cloudy SCT014 62 57     84%     29.87 29.87      
Aug 23 22:53 NNW 8 10 Partly Cloudy SCT011 63 58     84%     29.87 29.87      
Aug 23 21:53 NNW 7 10 Partly Cloudy SCT011 63 57     81%     29.87 29.86      
Aug 23 20:53 NNW 9 10 Partly Cloudy SCT010 64 58     81%     29.85 29.85      
Aug 23 19:53 NNW 11 10 Mostly Clear FEW008 64 57     78%     29.83 29.83      
Aug 23 18:53 NNW 14 10 Mostly Clear FEW010 66 58     75%     29.82 29.82      
Aug 23 17:53 WNW 11 10 Mostly Clear FEW010 70 58     66%     29.82 29.82      
Aug 23 16:53 NW 18 10 Mostly Clear FEW010 71 58     63%   71 29.82 29.81      
Aug 23 15:53 NW 16 10 Mostly Clear FEW010 73 59     61%   73 29.8 29.8      
Aug 23 14:53 NW 16 10 Mostly Clear FEW010 75 59     57%   75 29.81 29.81      
Aug 23 13:53 NW 15 10 Mostly Clear FEW010 FEW200 77 60     56%   77 29.82 29.82      
Aug 23 12:53 N 11 10 Mostly Clear FEW010 FEW200 77 59     54%   77 29.83 29.83      
Aug 23 11:53 WNW 8 10 Mostly Clear FEW010 FEW200 75 60     60%   75 29.83 29.83      
Aug 23 10:53 W 8 10 Mostly Clear FEW200 72 59     64%   72 29.83 29.83      
Aug 23 09:53 W 8 10 Mostly Clear FEW007 FEW010 69 59     70%     29.82 29.82      
Aug 23 08:53 6 10 Mostly Clear FEW007 FEW010 67 59     76%     29.81 29.81      
Aug 23 07:53 NW 8 7 Mostly Clear FEW007 FEW010 64 59     84%     29.8 29.79      
Aug 23 06:53 NNW 6 5 Haze FEW010 62 57     84%     29.78 29.77      
Aug 23 05:53 NW 5 8 Clear CLR 61 57     87%     29.76 29.75      
Aug 23 04:53 NNW 3 7 Clear CLR 62 58     86%     29.74 29.74      
Aug 23 03:53 Calm 8 Clear CLR 62 56     80%     29.74 29.74      
Aug 23 02:53 Calm 8 Clear CLR 61 56     83%     29.74 29.73      
Aug 23 01:53 N 3 8 Clear CLR 62 57     84%     29.74 29.74      
Aug 23 00:53 NNE 3 8 Clear CLR 60 54     80%     29.75 29.75      
Aug 22 23:53 N 5 8 Mostly Clear FEW010 62 56     80%     29.76 29.75      
Aug 22 22:53 WNW 9 8 Mostly Clear FEW010 63 57     81%     29.76 29.75      
Aug 22 21:53 WNW 10 9 Mostly Clear FEW010 64 57     78%     29.76 29.75      
Aug 22 20:53 WNW 14 9 Mostly Clear FEW010 FEW200 65 57     76%     29.75 29.75      
May 15 05:53 W 11 10 Cloudy OVC021 55 48     77%     30.01 30.01      
May 14 18:21 W 16 10 Clear   59 49     69%     29.97        
May 13 11:53 WSW 11 10 Mostly Clear FEW015 FEW026 64 50     60%     30.03 30.03      
May 12 14:53 WSW 8 10 Mostly Clear FEW012 70 50     49%     29.89 29.88      
May 12 05:53 NW 6 10 Clear CLR 63 49     60%     29.82 29.82      
May 12 00:53 WNW 10 10 Clear CLR 65 50     58%     29.81 29.8      
May 11 23:53 NW 7 10 Clear CLR 68 40     36%     29.8 29.79      
May 11 12:53 WSW 9 7 Mostly Cloudy BKN250 66 53     63%     29.82 29.82      
Jun 12 03:53 Calm 10 Clear CLR 53 49     86%     30.01 30.01      
Jun 11 18:53   10 Mostly Cloudy FEW015 FEW025 SCT050 BKN200 62 50     65%     29.97 29.97      
Jun 11 13:53   10 Partly Cloudy SCT020 67 48     51%     29.96 29.96      
Jun 11 06:53 WNW 21 10 Mostly Clear and Windy FEW012 57 47     69%     29.93 29.93      
Jun 11 02:53 W 20 10 Mostly Clear and Windy FEW017 57 49     74%     29.93 29.92      
Jun 10 02:53 WNW 14 10 Mostly Clear FEW008 FEW014 57 51     81%     29.97 29.96      
Jun 10 00:38   10 Mostly Clear FEW008 FEW014 58 51     78%     29.99        
Jun 09 04:11 WNW 7 10 Cloudy SCT008 OVC022 61 58     90%     29.96        
Notice The following observation data may not be complete
Jun 09 01:09   10 Cloudy FEW005 BKN013 OVC024          %              
Jun 08 21:53 NNW 7 10 Cloudy FEW010 SCT020 OVC030 64 60     87%     30 29.99      
Jun 08 13:53 W 7 10 Cloudy OVC024 67 55     66%     30.02 30.02   0  
Jun 07 21:03 WSW 13 10 Mostly Cloudy FEW008 FEW016 BKN180 BKN220 62 47     58%     29.93        
Jun 07 17:53   10 Mostly Cloudy FEW012 BKN180 BKN230 63 53     70%     29.93 29.93      
Jun 07 07:53 SW 6 10 Cloudy OVC009 57 52     83%     29.94 29.94      
Notice The following observation data may not be complete
Jun 06 06:23   8 Mostly Cloudy BKN010 BKN014          %              
Jun 05 17:53 W 16 10 Partly Cloudy FEW012 SCT200 69 52     54%     29.88 29.88